Location: Buckeye Ditch
(40.9104°N, 122.9517°W)
Time: 14:31:37
(UTC+00:00)

A-11 Canister half - Pass Details

Date: 20 May 2025
Orbit: 1515 x 1684 km, 47.2° (Epoch: 14 June)

Event Time Altitude Azimuth Distance (km) Brightness Sun altitude
Rises 09:54:21 0° 270° (W) 4,733 11.3 -24.2°
Reaches altitude 10° 09:57:32 10° 274° (W) 3,730 10.8 -24.0°
Maximum altitude 10:06:47 60° 354° (N) 1,707 9.4 -23.1°
Drops below altitude 10° 10:15:55 10° 74° (ENE) 3,676 11.6 -22.2°
Sets 10:19:02 0° 78° (ENE) 4,661 12.2 -21.9°
